Regional Weather Roundup
Issued by NWS

Home | Current Version | Previous Version | Graphics & Text | Print | Product List | Glossary On
Versions: 1 2 3 4 5 6 7 8 9 10 11 12 13 14 15 16 17 18 19 20 21 22 23 24 25 26 27 28 29 30 31 32 33 34 35 36 37 38 39 40 41 42 43 44 45 46 47 48 49 50
000
ASUS43 KLOT 210003
RWRIL

ILLINOIS REGIONAL WEATHER ROUNDUP
NATIONAL WEATHER SERVICE CHICAGO/ROMEOVILLE IL
600 PM CST MON NOV 20 2017

NOTE: "FAIR" INDICATES FEW OR NO CLOUDS BELOW 12,000 FEET WITH NO
SIGNIFICANT WEATHER AND/OR OBSTRUCTIONS TO VISIBILITY.

* THESE STATIONS ARE NOT UNDER NWS QUALITY CONTROL. THEY ALSO MAY NOT
  REPORT WEATHER SUCH AS PRECIPITATION OR FOG.

ILZ001-002-007-009-015-016-024-210100-
NORTHWEST ILLINOIS

CITY           SKY/WX    TMP DP  RH WIND       PRES   REMARKS
MOLINE         CLOUDY    53  32  44 S15       29.70R
6HR MIN TEMP:  52; 6HR MAX TEMP:  59;

STERLING*      CLOUDY    48  34  58 VRB6      29.72R
SAVANNA*       CLOUDY    49  34  56 S9        29.68R
$$

ILZ003-004-008-010-011-017-018-210100-
NORTH CENTRAL ILLINOIS

CITY           SKY/WX    TMP DP  RH WIND       PRES   REMARKS
ROCKFORD       CLOUDY    46  33  60 S12       29.72R
6HR MIN TEMP:  46; 6HR MAX TEMP:  55;

FREEPORT*      CLOUDY    48  33  55 S23G29    29.69R
ROCHELLE*      PTCLDY    44  34  69 S12       29.72R
DE KALB*       CLOUDY    44  36  71 S20       29.73R
PERU*          CLEAR     46  33  59 S16G22    29.76R
$$

ILZ005-006-012>014-019>023-210100-
NORTHEAST ILLINOIS

CITY           SKY/WX    TMP DP  RH WIND       PRES   REMARKS
CHICAGO-OHARE  MOCLDY    50  33  52 S21G30    29.73S
6HR MIN TEMP:  48; 6HR MAX TEMP:  52;

CHICAGO-MIDWAY MOCLDY    48  34  58 S18G31    29.76S
6HR MIN TEMP:  48; 6HR MAX TEMP:  54;

AURORA         CLOUDY    46  35  65 S15       29.74F
6HR MIN TEMP:  46; 6HR MAX TEMP:  52;

LANSING*       CLEAR     45  35  68 S20G29    29.80F
JOLIET*        CLEAR     49  35  56 S23G33    29.78S
WAUKEGAN       CLOUDY    49  34  56 SW22G35   29.69R
6HR MIN TEMP:  49; 6HR MAX TEMP:  52;

DUPAGE AIRPORT CLEAR     47  35  63 S18G37    29.73F
6HR MIN TEMP:  47; 6HR MAX TEMP:  52;

KANKAKEE*      CLEAR     44  32  62 S15G25    29.83F
WHEELING       CLEAR     51  34  52 S21G31    29.73F
6HR MIN TEMP:  50; 6HR MAX TEMP:  53;

MORRIS*        CLEAR     46  34  64 S17       29.77R
ROMEOVILLE*    CLEAR    N/A N/A N/A S18G28    29.77S
NORTHERLY ISL    N/A     49  32  52 S22         N/A
$$

LMZ740>746-210100-
SOUTHERN LAKE MICHIGAN

STATION/POSITION SKY/WX   TEMP    WIND        PRES    VSBY  WAVE
                          AIR SEA DIR/SP/G                  HT/PER
                          (F)     (DEG/KT/KT) (MB)    (MI)  (FT/S)
SOUTHERN BUOY              50 49  210/ 27/ 33 1005.3          6/ 6
HARRISON CRIB              50     200/ 35/ 40   N/A
BURNHAM HARBOR             48     170/ 16/ 26   N/A
CALUMET HARBOR             48     170/ 19/ 25 1007.4F
BURNS HARBOR               47     190/ 20/ 34 1009.1F
MICHIGAN CITY              47     180/ 23/ 27   N/A
$$

ILZ025>027-034>036-040-047-049-050-058-095>099-210100-
WEST-CENTRAL ILLINOIS

CITY           SKY/WX    TMP DP  RH WIND       PRES   REMARKS
QUINCY         CLEAR     51  31  46 S12       29.78R
GALESBURG*     CLOUDY    49  34  56 S10       29.75R
MACOMB*        CLEAR     50  32  50 S10       29.77S
JACKSONVILLE*  CLEAR     50  29  44 S13       29.81R
PITTSFIELD*    CLEAR     53  29  40 S9        29.81R
$$

ILZ028>032-037-038-041>044-048-051>054-059>061-210100-
CENTRAL ILLINOIS

CITY           SKY/WX    TMP DP  RH WIND       PRES   REMARKS
PONTIAC        CLEAR     46  34  61 S20G26    29.80S
BLOOMINGTON    CLEAR     44  32  62 S26       29.81F
DECATUR        CLEAR     45  30  55 S20       29.87F
PEORIA         CLEAR     48  34  58 S15       29.78S
6HR MIN TEMP:  48; 6HR MAX TEMP:  58;

LACON*         CLEAR     49  32  51 S15G23    29.74S
LINCOLN*       CLEAR     47  34  62 S18G24    29.82F
SPRINGFIELD    CLEAR     50  32  50 S20G31    29.83F
6HR MIN TEMP:  50; 6HR MAX TEMP:  59;

TAYLORVILLE    CLEAR     46  31  58 S21G26    29.86F
6HR MIN TEMP:  46; 6HR MAX TEMP:  54;

$$

ILZ033-039-045-046-055>057-062-063-210100-
EAST-CENTRAL ILLINOIS

CITY           SKY/WX    TMP DP  RH WIND       PRES   REMARKS
CHAMPAIGN      CLEAR     44  32  62 S21       29.88F
DANVILLE*      CLEAR     44  31  60 S21G29    29.87F
RANTOUL*       CLEAR     44  35  69 S17G23    29.87F
MATTOON        CLEAR     45  29  53 S14       29.91F
PARIS*         CLEAR     42  32  68 S15G24    29.95S
$$

ILZ079-100>102-210100-
SOUTHWEST ILLINOIS

CITY           SKY/WX    TMP DP  RH WIND       PRES   REMARKS
BELLEVILLE     CLEAR     48  29  47 S15       29.90F
CAHOKIA*       CLEAR     51  26  37 S13       29.89F
SPARTA*        CLEAR     46  31  55 S14G20    29.96F
$$

ILZ064>066-069>071-074>076-080>082-084>086-088>090-092>094-210100-
SOUTH-CENTRAL ILLINOIS

CITY           SKY/WX    TMP DP  RH WIND       PRES   REMARKS
CARBONDALE     CLEAR     44  29  55 S10       30.00S
6HR MIN TEMP:  43; 6HR MAX TEMP:  53;

CAIRO*         CLEAR     44  29  55 S3        30.05R
EFFINGHAM*     CLEAR     46  30  54 SE9       29.96F
MARION         PTCLDY    41  30  65 S8        30.02S
MT. VERNON     CLEAR     46  29  51 S12       29.99S
CENTRALIA*     CLEAR     46  32  58 S12       29.95F
SALEM*         CLEAR     48  29  48 S9G18     29.96S
METROPOLIS*    CLEAR     46  25  43 S3        30.05S
$$

ILZ067-068-072-073-078-083-087-091-210100-
SOUTHEAST ILLINOIS

CITY           SKY/WX    TMP DP  RH WIND       PRES   REMARKS
LAWRENCEVILLE  CLEAR     43  30  60 S12       30.01F
FLORA*         CLEAR     44  30  57 S10       29.98S
FAIRFIELD*     CLEAR     44  29  55 S3        29.99F
HARRISBURG*    CLEAR     45  29  54 S7        30.03S
ROBINSON*      CLEAR     42  29  59 S10       30.00S
CARMI*         CLEAR     40  31  68 S8        30.02S
$$

ABBREVIATIONS USED IN REMARKS
   TC - TEMPERATURE IN CELSIUS
  WCI - WIND CHILL INDEX
   HX - HEAT INDEX
  VSB - VISIBILITY
$$





USA.gov is the U.S. government's official web portal to all federal, state and local government web resources and services.